Private Wetterstation Wechselburg
Wetterdaten: Dienstag, 31.12.2019
Datum Zeit Temp. +2m Bodentemp. Temp.+5cm Temp. Wind Windchill X Diff Temp. Feuchte +2m Feuchte +5cm Luftdruck Regen Wind Richtung Richtung Sonnenschein Taupunkt Windchill Windben
31.12.2019 00:00 6,1 C 4,6 C 4,8 C 5,6 C 4,6 C 0,0 C 45 % 49 % 1028,4 hPa 0,0 l/m 4,5 km/h (1 Bft) O-SO 112 0 min -4,9 C 4,6 C 7,6 km/h (2 Bft)
31.12.2019 00:05 6,0 C 4,6 C 4,7 C 5,5 C 4,5 C 0,0 C 46 % 50 % 1028,0 hPa 0,0 l/m 4,7 km/h (1 Bft) SW 225 0 min -4,7 C 3,6 C 6,1 km/h (2 Bft)
31.12.2019 00:11 6,1 C 4,7 C 4,7 C 5,6 C 4,6 C 0,0 C 46 % 50 % 1028,0 hPa 0,0 l/m 4,5 km/h (1 Bft) N 0 0 min -4,6 C 4,6 C 7,1 km/h (2 Bft)
31.12.2019 00:26 6,1 C 4,7 C 4,7 C 5,7 C 5,0 C 0,0 C 46 % 50 % 1028,0 hPa 0,0 l/m 3,5 km/h (1 Bft) S 180 0 min -4,6 C 5,0 C 12,4 km/h (3 Bft)
31.12.2019 00:27 6,1 C 4,7 C 4,7 C 5,7 C 5,0 C 0,0 C 46 % 50 % 1028,0 hPa 0,0 l/m 3,5 km/h (1 Bft) S 180 0 min -4,6 C 5,0 C 3,5 km/h (1 Bft)
31.12.2019 00:40 6,1 C 4,8 C 4,7 C 5,4 C 4,1 C 0,0 C 47 % 51 % 1027,0 hPa 0,0 l/m 6,1 km/h (2 Bft) SW 225 0 min -4,3 C 2,7 C 8,5 km/h (2 Bft)
31.12.2019 00:45 6,1 C 4,8 C 4,7 C 5,4 C 4,1 C 0,0 C 47 % 51 % 1027,0 hPa 0,0 l/m 6,1 km/h (2 Bft) SW 225 0 min -4,3 C 2,7 C 8,5 km/h (2 Bft)
31.12.2019 00:50 6,3 C 4,7 C 4,8 C 5,6 C 4,2 C 0,0 C 46 % 50 % 1027,0 hPa 0,0 l/m 6,6 km/h (2 Bft) W-SW 247 0 min -4,5 C 2,6 C 4,2 km/h (1 Bft)
31.12.2019 00:55 6,3 C 4,7 C 4,7 C 5,6 C 4,3 C 0,0 C 46 % 51 % 1027,0 hPa 0,0 l/m 6,4 km/h (2 Bft) S 180 0 min -4,5 C 2,8 C 12,9 km/h (3 Bft)
31.12.2019 01:00 6,2 C 4,7 C 4,7 C 5,6 C 4,4 C 0,0 C 46 % 51 % 1027,0 hPa 0,0 l/m 6,1 km/h (2 Bft) S 180 0 min -4,5 C 3,0 C 7,1 km/h (2 Bft)
31.12.2019 01:05 6,4 C 4,7 C 4,7 C 5,7 C 4,2 C 0,0 C 46 % 50 % 1027,2 hPa 0,0 l/m 7,2 km/h (2 Bft) SW 225 0 min -4,4 C 2,4 C 14,0 km/h (3 Bft)
31.12.2019 01:10 6,5 C 4,7 C 4,8 C 5,9 C 4,1 C 0,0 C 46 % 50 % 1027,2 hPa 0,0 l/m 8,0 km/h (2 Bft) SW 225 0 min -4,3 C 2,1 C 12,9 km/h (3 Bft)
31.12.2019 01:15 6,4 C 4,7 C 5,0 C 5,8 C 4,2 C 0,0 C 46 % 49 % 1027,2 hPa 0,0 l/m 7,7 km/h (2 Bft) W-SW 247 0 min -4,4 C 2,3 C 7,4 km/h (2 Bft)
31.12.2019 01:20 6,5 C 4,7 C 5,0 C 5,8 C 4,4 C 0,0 C 45 % 49 % 1027,2 hPa 0,0 l/m 6,9 km/h (2 Bft) NW 315 0 min -4,6 C 2,7 C 3,7 km/h (1 Bft)
31.12.2019 01:25 6,4 C 4,7 C 4,9 C 5,8 C 4,5 C 0,0 C 45 % 49 % 1026,9 hPa 0,0 l/m 6,3 km/h (2 Bft) S 180 0 min -4,6 C 3,0 C 10,0 km/h (2 Bft)
31.12.2019 01:30 6,3 C 4,7 C 4,7 C 5,6 C 4,3 C 0,0 C 45 % 49 % 1026,9 hPa 0,0 l/m 6,6 km/h (2 Bft) S 180 0 min -4,7 C 2,7 C 8,0 km/h (2 Bft)
31.12.2019 01:35 6,2 C 4,7 C 4,7 C 5,6 C 4,3 C 0,0 C 45 % 50 % 1026,9 hPa 0,0 l/m 6,4 km/h (2 Bft) SW 225 0 min -4,8 C 2,8 C 14,6 km/h (3 Bft)
31.12.2019 01:40 6,3 C 4,7 C 4,7 C 5,6 C 4,3 C 0,0 C 45 % 50 % 1026,9 hPa 0,0 l/m 6,0 km/h (2 Bft) SW 225 0 min -4,7 C 2,9 C 6,0 km/h (2 Bft)
31.12.2019 01:45 6,1 C 4,8 C 4,5 C 5,5 C 4,3 C 0,0 C 46 % 50 % 1026,8 hPa 0,0 l/m 5,1 km/h (1 Bft) W-NW 292 0 min -4,6 C 3,2 C 3,9 km/h (1 Bft)
31.12.2019 01:50 6,1 C 4,8 C 4,4 C 5,5 C 4,3 C 0,0 C 46 % 51 % 1026,8 hPa 0,0 l/m 5,3 km/h (1 Bft) S-SW 202 0 min -4,6 C 3,2 C 6,4 km/h (2 Bft)
31.12.2019 01:55 6,1 C 4,8 C 4,4 C 5,5 C 4,2 C 0,0 C 46 % 51 % 1026,8 hPa 0,0 l/m 5,6 km/h (1 Bft) SW 225 0 min -4,6 C 2,9 C 6,8 km/h (2 Bft)
31.12.2019 02:00 6,0 C 4,8 C 4,3 C 5,5 C 4,4 C 0,0 C 46 % 50 % 1026,8 hPa 0,0 l/m 4,8 km/h (1 Bft) S-SO 157 0 min -4,7 C 3,5 C 2,9 km/h (1 Bft)
31.12.2019 02:05 5,9 C 4,8 C 4,2 C 5,5 C 4,7 C 0,0 C 46 % 51 % 1026,8 hPa 0,0 l/m 3,5 km/h (1 Bft) SO 135 0 min -4,8 C 4,7 C 3,4 km/h (1 Bft)
31.12.2019 02:11 5,8 C 4,8 C 4,0 C 5,3 C 4,3 C 0,0 C 46 % 51 % 1026,8 hPa 0,0 l/m 4,5 km/h (1 Bft) N 0 0 min -4,9 C 4,3 C 4,3 km/h (1 Bft)
31.12.2019 02:25 5,5 C 4,8 C 3,6 C 5,0 C 4,1 C 0,0 C 46 % 53 % 1026,8 hPa 0,0 l/m 3,2 km/h (1 Bft) SW 225 0 min -5,2 C 4,1 C 2,4 km/h (1 Bft)
31.12.2019 02:40 5,3 C 4,8 C 3,6 C 4,7 C 3,4 C 0,0 C 47 % 53 % 1026,8 hPa 0,0 l/m 4,7 km/h (1 Bft) SW 225 0 min -5,1 C 2,4 C 7,7 km/h (2 Bft)
31.12.2019 02:45 5,3 C 4,8 C 3,6 C 4,7 C 3,4 C 0,0 C 47 % 53 % 1026,8 hPa 0,0 l/m 4,7 km/h (1 Bft) SW 225 0 min -5,1 C 2,4 C 7,7 km/h (2 Bft)
31.12.2019 02:50 5,2 C 4,8 C 3,6 C 4,6 C 3,4 C 0,0 C 48 % 53 % 1026,8 hPa 0,0 l/m 4,7 km/h (1 Bft) S 180 0 min -4,9 C 2,4 C 8,9 km/h (2 Bft)
31.12.2019 02:55 5,1 C 4,8 C 3,7 C 4,6 C 3,6 C 0,0 C 47 % 52 % 1026,8 hPa 0,0 l/m 4,2 km/h (1 Bft) W-SW 247 0 min -5,3 C 3,6 C 5,1 km/h (1 Bft)
31.12.2019 03:00 5,1 C 4,8 C 3,7 C 4,8 C 4,1 C 0,0 C 48 % 52 % 1026,8 hPa 0,0 l/m 3,2 km/h (1 Bft) W-NW 292 0 min -5,0 C 4,1 C 2,7 km/h (1 Bft)
31.12.2019 03:05 5,1 C 4,8 C 3,7 C 4,5 C 3,4 C 0,0 C 47 % 52 % 1027,2 hPa 0,0 l/m 4,3 km/h (1 Bft) S 180 0 min -5,3 C 3,4 C 7,7 km/h (2 Bft)
31.12.2019 03:10 5,1 C 4,8 C 3,7 C 4,4 C 3,1 C 0,0 C 47 % 52 % 1027,2 hPa 0,0 l/m 5,3 km/h (1 Bft) S-SW 202 0 min -5,3 C 1,8 C 10,5 km/h (2 Bft)
31.12.2019 03:15 5,2 C 4,8 C 3,8 C 4,6 C 3,3 C 0,0 C 47 % 51 % 1027,2 hPa 0,0 l/m 5,1 km/h (1 Bft) S 180 0 min -5,2 C 2,1 C 3,4 km/h (1 Bft)
31.12.2019 03:20 5,2 C 4,8 C 3,7 C 4,8 C 3,9 C 0,0 C 47 % 51 % 1027,2 hPa 0,0 l/m 3,9 km/h (1 Bft) S 180 0 min -5,2 C 3,9 C 2,4 km/h (1 Bft)
31.12.2019 03:25 5,2 C 4,8 C 3,9 C 4,9 C 4,2 C 0,0 C 47 % 50 % 1026,6 hPa 0,0 l/m 3,2 km/h (1 Bft) W 270 0 min -5,2 C 4,2 C 7,4 km/h (2 Bft)
31.12.2019 03:30 5,3 C 4,8 C 3,9 C 4,9 C 4,0 C 0,0 C 46 % 50 % 1026,6 hPa 0,0 l/m 3,9 km/h (1 Bft) W 270 0 min -5,4 C 4,0 C 5,3 km/h (1 Bft)
31.12.2019 03:35 5,2 C 4,8 C 3,7 C 4,7 C 3,6 C 0,0 C 46 % 51 % 1026,6 hPa 0,0 l/m 4,5 km/h (1 Bft) SW 225 0 min -5,5 C 3,6 C 8,5 km/h (2 Bft)
31.12.2019 03:40 5,1 C 4,8 C 3,6 C 4,5 C 3,4 C 0,0 C 46 % 51 % 1026,6 hPa 0,0 l/m 4,5 km/h (1 Bft) S-SW 202 0 min -5,5 C 3,4 C 5,5 km/h (1 Bft)
31.12.2019 03:45 4,9 C 4,8 C 3,2 C 4,5 C 3,7 C 0,0 C 46 % 53 % 1027,1 hPa 0,0 l/m 3,4 km/h (1 Bft) S 180 0 min -5,7 C 3,7 C 6,4 km/h (2 Bft)
31.12.2019 03:50 4,8 C 4,8 C 3,1 C 4,3 C 3,4 C 0,0 C 46 % 53 % 1027,1 hPa 0,0 l/m 3,7 km/h (1 Bft) S 180 0 min -5,8 C 3,4 C 10,6 km/h (2 Bft)
31.12.2019 03:55 4,9 C 4,8 C 3,5 C 4,3 C 3,0 C 0,0 C 46 % 51 % 1027,1 hPa 0,0 l/m 5,5 km/h (1 Bft) SO 135 0 min -5,7 C 1,6 C 6,1 km/h (2 Bft)
31.12.2019 04:00 5,1 C 4,8 C 3,6 C 4,4 C 3,1 C 0,0 C 47 % 51 % 1027,1 hPa 0,0 l/m 5,5 km/h (1 Bft) S 180 0 min -5,3 C 1,7 C 7,7 km/h (2 Bft)
31.12.2019 04:05 5,0 C 4,8 C 3,5 C 4,4 C 3,3 C 0,0 C 46 % 52 % 1027,1 hPa 0,0 l/m 4,8 km/h (1 Bft) SW 225 0 min -5,6 C 2,2 C 12,9 km/h (3 Bft)
31.12.2019 04:11 4,8 C 4,8 C 3,3 C 4,2 C 3,1 C 0,0 C 46 % 53 % 1027,1 hPa 0,0 l/m 5,0 km/h (1 Bft) N 0 0 min -5,8 C 1,9 C 2,4 km/h (1 Bft)
31.12.2019 04:25 4,5 C 4,8 C 2,9 C 3,9 C 2,8 C 0,0 C 47 % 53 % 1027,1 hPa 0,0 l/m 4,0 km/h (1 Bft) SW 225 0 min -5,8 C 2,8 C 4,2 km/h (1 Bft)
31.12.2019 04:40 4,4 C 4,8 C 3,2 C 3,6 C 2,1 C 0,0 C 48 % 53 % 1027,1 hPa 0,0 l/m 6,8 km/h (2 Bft) W 270 0 min -5,6 C 0,1 C 10,6 km/h (2 Bft)
31.12.2019 04:45 4,4 C 4,8 C 3,2 C 3,6 C 2,1 C 0,0 C 48 % 53 % 1027,1 hPa 0,0 l/m 6,8 km/h (2 Bft) W 270 0 min -5,6 C 0,1 C 15,4 km/h (3 Bft)
31.12.2019 04:50 4,5 C 4,8 C 3,2 C 3,6 C 1,9 C 0,0 C 48 % 53 % 1027,1 hPa 0,0 l/m 7,1 km/h (2 Bft) SW 225 0 min -5,5 C -0,2 C 11,4 km/h (2 Bft)
31.12.2019 04:55 4,7 C 4,8 C 3,3 C 4,0 C 2,0 C 0,0 C 48 % 53 % 1027,1 hPa 0,0 l/m 8,4 km/h (2 Bft) N 360 0 min -5,4 C -0,5 C 19,3 km/h (3 Bft)
31.12.2019 05:00 4,6 C 4,8 C 3,4 C 3,8 C 2,3 C 0,0 C 48 % 53 % 1027,1 hPa 0,0 l/m 7,6 km/h (2 Bft) S 180 0 min -5,4 C 0,1 C 9,0 km/h (2 Bft)
31.12.2019 05:05 4,7 C 4,8 C 3,3 C 4,1 C 2,8 C 0,0 C 48 % 53 % 1027,1 hPa 0,0 l/m 5,6 km/h (1 Bft) S-SW 202 0 min -5,4 C 1,3 C 11,1 km/h (2 Bft)
31.12.2019 05:10 4,7 C 4,8 C 3,3 C 4,0 C 2,7 C 0,0 C 48 % 53 % 1027,1 hPa 0,0 l/m 6,0 km/h (2 Bft) SW 225 0 min -5,4 C 1,1 C 8,4 km/h (2 Bft)
31.12.2019 05:15 4,6 C 4,8 C 3,3 C 4,0 C 2,7 C 0,0 C 48 % 53 % 1027,1 hPa 0,0 l/m 6,1 km/h (2 Bft) NO 45 0 min -5,4 C 1,0 C 5,8 km/h (2 Bft)
31.12.2019 05:20 4,4 C 4,8 C 3,2 C 4,0 C 3,1 C 0,0 C 49 % 54 % 1027,1 hPa 0,0 l/m 4,7 km/h (1 Bft) N-NW 337 0 min -5,4 C 2,1 C 9,2 km/h (2 Bft)
31.12.2019 05:25 4,3 C 4,8 C 3,0 C 3,8 C 2,9 C 0,0 C 49 % 55 % 1027,9 hPa 0,0 l/m 4,5 km/h (1 Bft) W-SW 247 0 min -5,5 C 2,9 C 4,7 km/h (1 Bft)
31.12.2019 05:30 4,1 C 4,7 C 2,8 C 3,5 C 2,4 C 0,0 C 50 % 56 % 1027,9 hPa 0,0 l/m 4,5 km/h (1 Bft) S-SO 157 0 min -5,4 C 2,4 C 4,8 km/h (1 Bft)
31.12.2019 05:35 4,0 C 4,7 C 2,8 C 3,5 C 2,6 C 0,0 C 50 % 56 % 1027,9 hPa 0,0 l/m 3,7 km/h (1 Bft) W-SW 247 0 min -5,5 C 2,6 C 5,6 km/h (1 Bft)
31.12.2019 05:40 3,9 C 4,7 C 2,8 C 3,5 C 2,6 C 0,0 C 51 % 56 % 1027,9 hPa 0,0 l/m 3,7 km/h (1 Bft) W 270 0 min -5,3 C 2,6 C 2,1 km/h (1 Bft)
31.12.2019 05:45 3,7 C 4,7 C 2,5 C 3,4 C 2,8 C 0,0 C 51 % 57 % 1027,9 hPa 0,0 l/m 1,8 km/h (1 Bft) SW 225 0 min -5,5 C 2,8 C 2,3 km/h (1 Bft)
31.12.2019 05:50 3,7 C 4,7 C 2,5 C 3,4 C 2,7 C 0,0 C 52 % 58 % 1027,9 hPa 0,0 l/m 1,0 km/h (0 Bft) S 180 0 min -5,2 C 2,7 C 1,8 km/h (1 Bft)
31.12.2019 05:55 3,5 C 4,7 C 2,4 C 3,2 C 2,7 C 0,0 C 53 % 58 % 1027,9 hPa 0,0 l/m 1,6 km/h (1 Bft) SW 225 0 min -5,2 C 2,7 C 1,8 km/h (1 Bft)
31.12.2019 06:00 3,4 C 4,7 C 2,4 C 3,2 C 2,7 C 0,0 C 53 % 59 % 1027,9 hPa 0,0 l/m 1,4 km/h (1 Bft) SW 225 0 min -5,3 C 2,7 C 1,6 km/h (1 Bft)
31.12.2019 06:05 3,5 C 4,7 C 2,4 C 3,2 C 2,7 C 0,0 C 54 % 59 % 1027,9 hPa 0,0 l/m 1,8 km/h (1 Bft) W-NW 292 0 min -4,9 C 2,7 C 3,5 km/h (1 Bft)
31.12.2019 06:11 3,4 C 4,7 C 2,5 C 3,2 C 2,8 C 0,0 C 54 % 59 % 1027,9 hPa 0,0 l/m 1,8 km/h (1 Bft) N 0 0 min -5,0 C 2,8 C 5,1 km/h (1 Bft)
31.12.2019 06:25 3,7 C 4,7 C 3,1 C 3,4 C 2,9 C 0,0 C 54 % 58 % 1028,2 hPa 0,0 l/m 4,5 km/h (1 Bft) SW 225 0 min -4,7 C 2,9 C 4,5 km/h (1 Bft)
31.12.2019 06:26 3,7 C 4,7 C 3,1 C 3,4 C 2,9 C 0,0 C 54 % 58 % 1028,2 hPa 0,0 l/m 4,5 km/h (1 Bft) SW 225 0 min -4,7 C 2,9 C 4,5 km/h (1 Bft)
31.12.2019 06:30 3,7 C 4,7 C 3,1 C 3,4 C 2,9 C 0,0 C 54 % 58 % 1028,2 hPa 0,0 l/m 4,5 km/h (1 Bft) SW 225 0 min -4,7 C 2,9 C 4,5 km/h (1 Bft)
31.12.2019 06:35 3,9 C 4,7 C 3,2 C 3,7 C 3,2 C 0,0 C 54 % 59 % 1028,2 hPa 0,0 l/m 4,5 km/h (1 Bft) SW 225 0 min -4,5 C 3,2 C 3,7 km/h (1 Bft)
31.12.2019 06:40 3,8 C 4,7 C 3,2 C 3,9 C 3,9 C 0,1 C 54 % 59 % 1028,2 hPa 0,0 l/m 3,4 km/h (1 Bft) S 180 0 min -4,6 C 3,9 C 2,9 km/h (1 Bft)
31.12.2019 06:45 3,9 C 4,7 C 3,3 C 3,9 C 3,9 C 0,0 C 54 % 59 % 1028,2 hPa 0,0 l/m 3,5 km/h (1 Bft) SW 225 0 min -4,5 C 3,9 C 7,4 km/h (2 Bft)
31.12.2019 06:50 4,0 C 4,7 C 3,4 C 3,8 C 3,5 C 0,0 C 55 % 58 % 1028,2 hPa 0,0 l/m 4,7 km/h (1 Bft) S 180 0 min -4,2 C 2,5 C 3,9 km/h (1 Bft)
31.12.2019 06:55 4,1 C 4,7 C 3,5 C 4,0 C 3,7 C 0,0 C 55 % 59 % 1028,2 hPa 0,0 l/m 4,5 km/h (1 Bft) S-SO 157 0 min -4,1 C 3,7 C 4,5 km/h (1 Bft)
31.12.2019 07:00 4,1 C 4,7 C 3,5 C 4,0 C 3,9 C 0,0 C 55 % 59 % 1028,2 hPa 0,0 l/m 4,0 km/h (1 Bft) SW 225 0 min -4,1 C 3,9 C 5,8 km/h (2 Bft)
31.12.2019 07:05 4,3 C 4,7 C 3,5 C 4,1 C 3,7 C 0,0 C 55 % 59 % 1028,2 hPa 0,0 l/m 4,8 km/h (1 Bft) W 270 0 min -3,9 C 2,7 C 5,5 km/h (1 Bft)
31.12.2019 07:10 4,2 C 4,7 C 3,5 C 4,1 C 3,8 C 0,0 C 55 % 59 % 1028,2 hPa 0,0 l/m 4,7 km/h (1 Bft) W-SW 247 0 min -4,0 C 2,8 C 4,0 km/h (1 Bft)
31.12.2019 07:15 4,1 C 4,7 C 3,5 C 4,0 C 3,8 C 0,0 C 55 % 59 % 1028,2 hPa 0,0 l/m 4,2 km/h (1 Bft) W 270 0 min -4,1 C 3,8 C 4,8 km/h (1 Bft)
31.12.2019 07:20 4,1 C 4,7 C 3,5 C 3,8 C 3,3 C 0,0 C 55 % 59 % 1028,2 hPa 0,0 l/m 5,1 km/h (1 Bft) W-SW 247 0 min -4,1 C 2,1 C 7,7 km/h (2 Bft)
31.12.2019 07:25 4,0 C 4,7 C 3,5 C 3,5 C 2,5 C 0,0 C 55 % 59 % 1029,6 hPa 0,0 l/m 7,2 km/h (2 Bft) SW 225 0 min -4,2 C 0,4 C 9,3 km/h (2 Bft)
31.12.2019 07:30 4,0 C 4,7 C 3,5 C 3,7 C 2,3 C 0,0 C 56 % 59 % 1029,6 hPa 0,0 l/m 7,9 km/h (2 Bft) S-SW 202 0 min -4,0 C -0,0 C 8,2 km/h (2 Bft)
31.12.2019 07:35 4,0 C 4,7 C 3,5 C 3,4 C 2,3 C 0,0 C 56 % 60 % 1029,6 hPa 0,0 l/m 7,7 km/h (2 Bft) W-SW 247 0 min -4,0 C 0,1 C 9,7 km/h (2 Bft)
31.12.2019 07:40 4,0 C 4,7 C 3,5 C 3,5 C 2,5 C 0,0 C 56 % 60 % 1029,6 hPa 0,0 l/m 7,1 km/h (2 Bft) SW 225 0 min -4,0 C 0,5 C 6,6 km/h (2 Bft)
31.12.2019 07:45 4,0 C 4,7 C 3,4 C 3,5 C 2,6 C 0,0 C 57 % 60 % 1029,6 hPa 0,0 l/m 6,6 km/h (2 Bft) SW 225 0 min -3,7 C 0,8 C 9,3 km/h (2 Bft)
31.12.2019 07:50 3,9 C 4,7 C 3,5 C 3,5 C 2,6 C 0,0 C 57 % 60 % 1029,6 hPa 0,0 l/m 6,6 km/h (2 Bft) S 180 0 min -3,8 C 0,8 C 5,3 km/h (1 Bft)
31.12.2019 07:55 3,9 C 4,7 C 3,5 C 3,6 C 3,0 C 0,0 C 58 % 61 % 1029,6 hPa 0,0 l/m 5,5 km/h (1 Bft) S-SW 202 0 min -3,6 C 1,6 C 8,7 km/h (2 Bft)
31.12.2019 08:00 3,9 C 4,7 C 3,5 C 3,6 C 3,1 C 0,0 C 58 % 61 % 1029,6 hPa 0,0 l/m 5,1 km/h (1 Bft) W-SW 247 0 min -3,6 C 1,9 C 6,1 km/h (2 Bft)
31.12.2019 08:05 3,9 C 4,7 C 3,5 C 3,6 C 2,9 C 0,0 C 58 % 61 % 1029,6 hPa 0,0 l/m 5,8 km/h (2 Bft) S 180 0 min -3,6 C 1,4 C 6,8 km/h (2 Bft)
31.12.2019 08:10 3,9 C 4,7 C 3,5 C 3,6 C 2,9 C 0,0 C 58 % 61 % 1029,6 hPa 0,0 l/m 5,8 km/h (2 Bft) SW 225 0 min -3,6 C 1,4 C 6,6 km/h (2 Bft)
31.12.2019 08:15 4,0 C 4,7 C 3,5 C 3,7 C 3,1 C 0,0 C 58 % 62 % 1029,6 hPa 0,0 l/m 5,5 km/h (1 Bft) SW 225 0 min -3,5 C 1,7 C 5,0 km/h (1 Bft)
31.12.2019 08:20 3,9 C 4,7 C 3,5 C 3,7 C 3,2 C 0,0 C 58 % 62 % 1029,6 hPa 0,0 l/m 5,1 km/h (1 Bft) SW 225 0 min -3,6 C 2,0 C 8,0 km/h (2 Bft)
31.12.2019 08:25 3,9 C 4,7 C 3,5 C 3,8 C 3,7 C 0,0 C 59 % 62 % 1029,6 hPa 0,0 l/m 4,0 km/h (1 Bft) S 180 0 min -3,4 C 3,7 C 2,9 km/h (1 Bft)
31.12.2019 08:30 3,9 C 4,7 C 3,5 C 3,9 C 3,8 C 0,0 C 59 % 63 % 1029,6 hPa 0,0 l/m 3,7 km/h (1 Bft) SW 225 0 min -3,4 C 3,8 C 3,4 km/h (1 Bft)
31.12.2019 08:35 3,9 C 4,7 C 3,4 C 3,9 C 3,9 C 0,0 C 59 % 63 % 1029,6 hPa 0,0 l/m 3,4 km/h (1 Bft) S-SW 202 0 min -3,4 C 3,9 C 4,5 km/h (1 Bft)
31.12.2019 08:40 3,9 C 4,7 C 3,5 C 3,9 C 3,9 C 0,0 C 59 % 63 % 1029,6 hPa 0,0 l/m 3,4 km/h (1 Bft) SW 225 0 min -3,4 C 3,9 C 4,2 km/h (1 Bft)
31.12.2019 08:45 3,9 C 4,7 C 3,4 C 3,9 C 3,8 C 0,0 C 60 % 63 % 1029,6 hPa 0,0 l/m 3,7 km/h (1 Bft) W-SW 247 0 min -3,1 C 3,8 C 2,9 km/h (1 Bft)
31.12.2019 08:50 4,0 C 4,7 C 3,5 C 3,9 C 3,8 C 0,0 C 60 % 64 % 1029,6 hPa 0,0 l/m 3,9 km/h (1 Bft) SW 225 0 min -3,0 C 3,8 C 3,5 km/h (1 Bft)
31.12.2019 08:55 4,0 C 4,7 C 3,5 C 3,9 C 3,8 C 0,0 C 60 % 64 % 1029,6 hPa 0,0 l/m 3,7 km/h (1 Bft) S 180 0 min -3,0 C 3,8 C 4,3 km/h (1 Bft)
31.12.2019 09:00 3,9 C 4,7 C 3,5 C 3,8 C 3,7 C 0,0 C 61 % 66 % 1029,6 hPa 0,0 l/m 3,9 km/h (1 Bft) SW 225 0 min -2,9 C 3,7 C 3,9 km/h (1 Bft)
31.12.2019 09:05 4,0 C 4,7 C 3,5 C 3,8 C 3,4 C 0,0 C 62 % 66 % 1030,8 hPa 0,0 l/m 4,3 km/h (1 Bft) SW 225 0 min -2,6 C 3,4 C 4,8 km/h (1 Bft)
31.12.2019 09:10 4,0 C 4,7 C 3,6 C 3,8 C 3,4 C 0,0 C 64 % 67 % 1030,8 hPa 0,0 l/m 4,7 km/h (1 Bft) W-SW 247 0 min -2,2 C 2,4 C 8,7 km/h (2 Bft)
31.12.2019 09:15 4,0 C 4,7 C 3,7 C 3,7 C 3,2 C 0,0 C 65 % 70 % 1030,8 hPa 0,0 l/m 5,1 km/h (1 Bft) W 270 0 min -2,0 C 2,0 C 4,8 km/h (1 Bft)
31.12.2019 09:20 4,1 C 4,7 C 3,7 C 3,9 C 3,4 C 0,0 C 67 % 71 % 1030,8 hPa 0,0 l/m 5,3 km/h (1 Bft) S 180 0 min -1,5 C 2,1 C 4,8 km/h (1 Bft)
31.12.2019 09:25 4,3 C 4,7 C 3,8 C 4,0 C 3,3 C 0,0 C 69 % 73 % 1031,1 hPa 0,0 l/m 5,8 km/h (2 Bft) SW 225 0 min -0,9 C 1,8 C 7,4 km/h (2 Bft)
31.12.2019 09:30 4,2 C 4,8 C 3,9 C 3,8 C 3,0 C 0,0 C 70 % 75 % 1031,1 hPa 0,0 l/m 6,8 km/h (2 Bft) S-SW 202 0 min -0,8 C 1,1 C 10,8 km/h (2 Bft)
31.12.2019 09:35 4,1 C 4,8 C 3,8 C 3,8 C 3,1 C 0,0 C 72 % 75 % 1031,1 hPa 0,0 l/m 6,3 km/h (2 Bft) S 180 0 min -0,5 C 1,4 C 4,0 km/h (1 Bft)
31.12.2019 09:40 4,0 C 4,8 C 3,8 C 3,7 C 3,1 C 0,0 C 72 % 75 % 1031,1 hPa 0,0 l/m 5,6 km/h (1 Bft) S-SW 202 0 min -0,6 C 1,7 C 6,4 km/h (2 Bft)
31.12.2019 09:45 4,0 C 4,8 C 3,8 C 3,9 C 3,7 C 0,0 C 73 % 76 % 1031,1 hPa 0,0 l/m 4,2 km/h (1 Bft) S-SW 202 0 min -0,4 C 3,7 C 5,6 km/h (1 Bft)
31.12.2019 09:50 4,0 C 4,8 C 3,9 C 3,9 C 3,7 C 0,0 C 73 % 76 % 1031,1 hPa 0,0 l/m 4,2 km/h (1 Bft) SW 225 0 min -0,4 C 3,7 C 6,1 km/h (2 Bft)
31.12.2019 09:55 4,0 C 4,8 C 3,9 C 3,9 C 3,7 C 0,0 C 74 % 76 % 1031,1 hPa 0,0 l/m 4,5 km/h (1 Bft) SW 225 0 min -0,2 C 3,7 C 3,7 km/h (1 Bft)
31.12.2019 10:00 4,0 C 4,8 C 3,9 C 4,0 C 4,0 C 0,0 C 74 % 76 % 1031,1 hPa 0,0 l/m 4,2 km/h (1 Bft) SW 225 0 min -0,2 C 4,0 C 3,9 km/h (1 Bft)
31.12.2019 10:05 4,1 C 4,8 C 4,0 C 4,4 C 4,4 C 0,3 C 74 % 76 % 1031,1 hPa 0,0 l/m 3,4 km/h (1 Bft) W-SW 247 0 min -0,1 C 4,4 C 2,4 km/h (1 Bft)
31.12.2019 10:10 4,0 C 4,8 C 4,0 C 4,4 C 4,4 C 0,4 C 75 % 77 % 1031,1 hPa 0,0 l/m 3,2 km/h (1 Bft) SW 225 0 min -0,0 C 4,4 C 2,7 km/h (1 Bft)
31.12.2019 10:15 4,1 C 4,8 C 4,0 C 4,4 C 4,4 C 0,3 C 75 % 77 % 1031,1 hPa 0,0 l/m 3,2 km/h (1 Bft) S-SO 157 0 min 0,1 C 4,4 C 3,9 km/h (1 Bft)
31.12.2019 10:20 4,1 C 4,8 C 4,1 C 4,1 C 4,1 C 0,0 C 76 % 78 % 1031,1 hPa 0,0 l/m 4,2 km/h (1 Bft) S 180 0 min 0,3 C 4,1 C 8,2 km/h (2 Bft)
31.12.2019 10:25 4,3 C 4,8 C 4,3 C 4,2 C 3,9 C 0,0 C 76 % 78 % 1031,8 hPa 0,0 l/m 5,8 km/h (2 Bft) S 180 0 min 0,5 C 2,5 C 7,7 km/h (2 Bft)
31.12.2019 10:30 4,3 C 4,8 C 4,4 C 4,2 C 3,9 C 0,0 C 77 % 78 % 1031,8 hPa 0,0 l/m 6,3 km/h (2 Bft) SW 225 0 min 0,6 C 2,4 C 8,7 km/h (2 Bft)
31.12.2019 10:35 4,4 C 4,8 C 4,4 C 4,3 C 4,2 C 0,0 C 77 % 78 % 1031,8 hPa 0,0 l/m 5,6 km/h (1 Bft) S-SW 202 0 min 0,7 C 2,9 C 8,7 km/h (2 Bft)
31.12.2019 10:40 4,4 C 4,8 C 4,5 C 4,3 C 4,2 C 0,0 C 77 % 78 % 1031,8 hPa 0,0 l/m 6,1 km/h (2 Bft) W-SW 247 0 min 0,7 C 2,8 C 10,8 km/h (2 Bft)
31.12.2019 10:45 4,5 C 4,8 C 4,5 C 4,4 C 4,2 C 0,0 C 77 % 78 % 1032,0 hPa 0,0 l/m 6,1 km/h (2 Bft) S-SW 202 0 min 0,8 C 2,8 C 4,5 km/h (1 Bft)
31.12.2019 10:50 4,5 C 4,8 C 4,5 C 4,5 C 4,4 C 0,0 C 78 % 78 % 1032,0 hPa 0,0 l/m 5,3 km/h (1 Bft) SW 225 0 min 1,0 C 3,3 C 7,1 km/h (2 Bft)
31.12.2019 10:55 4,6 C 4,8 C 4,5 C 4,5 C 4,4 C 0,0 C 78 % 78 % 1032,0 hPa 0,0 l/m 5,3 km/h (1 Bft) S-SW 202 0 min 1,1 C 3,3 C 6,6 km/h (2 Bft)
31.12.2019 11:00 4,7 C 4,8 C 4,5 C 4,6 C 4,4 C 0,0 C 78 % 78 % 1032,0 hPa 0,0 l/m 5,3 km/h (1 Bft) SW 225 0 min 1,2 C 3,3 C 7,4 km/h (2 Bft)
31.12.2019 11:05 4,6 C 4,8 C 4,7 C 4,6 C 4,6 C 0,0 C 78 % 79 % 1032,2 hPa 0,0 l/m 5,5 km/h (1 Bft) SW 225 0 min 1,1 C 3,4 C 8,4 km/h (2 Bft)
31.12.2019 11:10 4,7 C 4,8 C 4,8 C 4,6 C 4,4 C 0,0 C 78 % 78 % 1032,2 hPa 0,0 l/m 6,1 km/h (2 Bft) SW 225 0 min 1,2 C 3,0 C 4,8 km/h (1 Bft)
31.12.2019 11:15 4,9 C 4,8 C 4,9 C 4,8 C 4,6 C 0,0 C 78 % 78 % 1032,2 hPa 0,0 l/m 6,3 km/h (2 Bft) S 180 0 min 1,4 C 3,2 C 6,8 km/h (2 Bft)
31.12.2019 11:20 4,8 C 4,8 C 4,9 C 4,9 C 4,9 C 0,1 C 78 % 78 % 1032,2 hPa 0,0 l/m 6,0 km/h (2 Bft) S-SW 202 0 min 1,3 C 3,6 C 5,3 km/h (1 Bft)
31.12.2019 11:25 4,9 C 4,8 C 5,1 C 5,0 C 5,0 C 0,1 C 77 % 78 % 1032,3 hPa 0,0 l/m 6,3 km/h (2 Bft) W-SW 247 0 min 1,2 C 3,6 C 7,4 km/h (2 Bft)
31.12.2019 11:30 5,0 C 4,8 C 5,1 C 5,1 C 5,1 C 0,1 C 77 % 77 % 1032,3 hPa 0,0 l/m 6,0 km/h (2 Bft) SW 225 0 min 1,3 C 3,8 C 6,3 km/h (2 Bft)
31.12.2019 11:35 5,1 C 4,8 C 5,1 C 5,2 C 5,2 C 0,1 C 77 % 77 % 1032,3 hPa 0,0 l/m 6,0 km/h (2 Bft) W-SW 247 0 min 1,4 C 4,0 C 5,6 km/h (1 Bft)
31.12.2019 11:40 5,1 C 4,9 C 5,1 C 5,1 C 5,1 C 0,0 C 77 % 77 % 1032,3 hPa 0,0 l/m 6,1 km/h (2 Bft) SW 225 0 min 1,4 C 3,8 C 5,6 km/h (1 Bft)
31.12.2019 11:45 5,1 C 4,9 C 5,1 C 5,1 C 5,0 C 0,0 C 77 % 77 % 1032,3 hPa 0,0 l/m 6,3 km/h (2 Bft) W-SW 247 0 min 1,4 C 3,6 C 5,8 km/h (2 Bft)
31.12.2019 11:50 5,2 C 4,9 C 5,1 C 5,1 C 4,9 C 0,0 C 77 % 77 % 1032,3 hPa 0,0 l/m 6,4 km/h (2 Bft) S-SW 202 0 min 1,5 C 3,5 C 9,5 km/h (2 Bft)
31.12.2019 11:55 5,2 C 4,9 C 5,1 C 5,2 C 5,1 C 0,0 C 77 % 77 % 1032,3 hPa 0,0 l/m 6,1 km/h (2 Bft) NW 315 0 min 1,5 C 3,8 C 6,3 km/h (2 Bft)
31.12.2019 12:00 5,2 C 4,9 C 5,3 C 5,3 C 5,3 C 0,1 C 76 % 77 % 1032,3 hPa 0,0 l/m 5,5 km/h (1 Bft) SW 225 0 min 1,3 C 4,2 C 5,5 km/h (1 Bft)
31.12.2019 12:05 5,2 C 4,9 C 5,2 C 5,5 C 5,5 C 0,3 C 76 % 77 % 1032,5 hPa 0,0 l/m 4,8 km/h (1 Bft) W-SW 247 0 min 1,3 C 4,7 C 4,0 km/h (1 Bft)
31.12.2019 12:10 5,3 C 4,9 C 5,2 C 5,9 C 5,9 C 0,6 C 76 % 77 % 1032,5 hPa 0,0 l/m 3,9 km/h (1 Bft) W 270 0 min 1,4 C 5,9 C 0,0 km/h (0 Bft)
31.12.2019 12:15 5,3 C 4,9 C 5,3 C 6,3 C 6,3 C 1,0 C 76 % 77 % 1032,5 hPa 0,0 l/m 2,9 km/h (1 Bft) S-SW 202 0 min 1,4 C 6,3 C 6,8 km/h (2 Bft)
31.12.2019 12:20 5,5 C 4,9 C 5,3 C 6,2 C 6,2 C 0,7 C 76 % 77 % 1032,5 hPa 0,0 l/m 3,4 km/h (1 Bft) SW 225 0 min 1,6 C 6,2 C 7,2 km/h (2 Bft)
31.12.2019 12:25 5,5 C 4,9 C 5,4 C 5,9 C 5,9 C 0,4 C 76 % 77 % 1032,4 hPa 0,0 l/m 4,2 km/h (1 Bft) W-SW 247 0 min 1,6 C 5,9 C 2,9 km/h (1 Bft)
31.12.2019 12:30 5,4 C 4,9 C 5,4 C 6,1 C 6,1 C 0,7 C 76 % 77 % 1032,4 hPa 0,0 l/m 4,0 km/h (1 Bft) S 180 0 min 1,5 C 6,1 C 6,8 km/h (2 Bft)
31.12.2019 12:35 5,4 C 4,9 C 5,3 C 6,3 C 6,3 C 0,9 C 76 % 77 % 1032,4 hPa 0,0 l/m 3,4 km/h (1 Bft) W-SW 247 0 min 1,5 C 6,3 C 4,2 km/h (1 Bft)
31.12.2019 12:40 5,4 C 4,9 C 5,3 C 5,9 C 5,9 C 0,5 C 76 % 77 % 1032,4 hPa 0,0 l/m 4,0 km/h (1 Bft) S-SW 202 0 min 1,5 C 5,9 C 3,2 km/h (1 Bft)
31.12.2019 12:45 5,5 C 4,9 C 5,4 C 5,8 C 5,8 C 0,3 C 76 % 78 % 1033,1 hPa 0,0 l/m 4,0 km/h (1 Bft) W-NW 292 0 min 1,6 C 5,8 C 7,4 km/h (2 Bft)
31.12.2019 12:50 5,5 C 4,9 C 5,3 C 6,2 C 6,2 C 0,7 C 76 % 77 % 1033,1 hPa 0,0 l/m 2,7 km/h (1 Bft) NW 315 0 min 1,6 C 6,2 C 0,0 km/h (0 Bft)
31.12.2019 12:55 5,5 C 4,9 C 5,3 C 6,2 C 6,2 C 0,7 C 76 % 77 % 1033,1 hPa 0,0 l/m 2,9 km/h (1 Bft) SW 225 0 min 1,6 C 6,2 C 8,9 km/h (2 Bft)
31.12.2019 13:00 5,4 C 4,9 C 5,3 C 6,2 C 6,2 C 0,8 C 76 % 77 % 1033,1 hPa 0,0 l/m 2,9 km/h (1 Bft) SW 225 0 min 1,5 C 6,2 C 3,9 km/h (1 Bft)
31.12.2019 13:05 5,4 C 4,9 C 5,4 C 6,3 C 6,3 C 0,9 C 77 % 78 % 1033,2 hPa 0,0 l/m 2,6 km/h (1 Bft) W-SW 247 0 min 1,7 C 6,3 C 0,0 km/h (0 Bft)
31.12.2019 13:10 5,5 C 4,9 C 5,4 C 6,4 C 6,4 C 0,9 C 77 % 78 % 1033,2 hPa 0,0 l/m 2,9 km/h (1 Bft) SW 225 0 min 1,8 C 6,4 C 6,4 km/h (2 Bft)
31.12.2019 13:15 5,5 C 4,9 C 5,5 C 5,9 C 5,9 C 0,4 C 76 % 78 % 1033,2 hPa 0,0 l/m 4,3 km/h (1 Bft) SW 225 0 min 1,6 C 5,9 C 6,1 km/h (2 Bft)
31.12.2019 13:20 5,5 C 4,9 C 5,5 C 6,1 C 6,1 C 0,6 C 76 % 78 % 1033,2 hPa 0,0 l/m 4,0 km/h (1 Bft) S-SO 157 0 min 1,6 C 6,1 C 1,8 km/h (1 Bft)
31.12.2019 13:25 5,5 C 4,9 C 5,5 C 6,4 C 6,4 C 0,9 C 77 % 78 % 1033,0 hPa 0,0 l/m 3,2 km/h (1 Bft) SW 225 0 min 1,8 C 6,4 C 4,0 km/h (1 Bft)
31.12.2019 13:30 5,5 C 5,0 C 5,5 C 6,5 C 6,5 C 1,0 C 77 % 78 % 1033,0 hPa 0,0 l/m 2,7 km/h (1 Bft) W-SW 247 0 min 1,8 C 6,5 C 3,4 km/h (1 Bft)
31.12.2019 13:35 5,5 C 5,0 C 5,5 C 6,4 C 6,4 C 0,9 C 77 % 78 % 1033,0 hPa 0,0 l/m 2,9 km/h (1 Bft) W-SW 247 0 min 1,8 C 6,4 C 5,5 km/h (1 Bft)
31.12.2019 13:40 5,5 C 5,0 C 5,5 C 6,4 C 6,4 C 0,9 C 77 % 78 % 1033,0 hPa 0,0 l/m 2,9 km/h (1 Bft) SW 225 0 min 1,8 C 6,4 C 4,3 km/h (1 Bft)
31.12.2019 13:45 5,5 C 5,0 C 5,5 C 5,9 C 5,9 C 0,4 C 76 % 77 % 1032,8 hPa 0,0 l/m 4,2 km/h (1 Bft) SW 225 0 min 1,6 C 5,9 C 3,2 km/h (1 Bft)
31.12.2019 13:50 5,5 C 5,0 C 5,5 C 5,6 C 5,6 C 0,1 C 77 % 78 % 1032,8 hPa 0,0 l/m 5,1 km/h (1 Bft) S-SW 202 0 min 1,8 C 4,7 C 4,7 km/h (1 Bft)
31.12.2019 13:55 5,5 C 5,0 C 5,5 C 6,3 C 6,3 C 0,8 C 77 % 78 % 1032,8 hPa 0,0 l/m 3,4 km/h (1 Bft) S-SW 202 0 min 1,8 C 6,3 C 7,2 km/h (2 Bft)
31.12.2019 14:00 5,5 C 5,0 C 5,4 C 6,4 C 6,4 C 0,9 C 77 % 78 % 1032,8 hPa 0,0 l/m 3,1 km/h (1 Bft) SW 225 0 min 1,8 C 6,4 C 3,4 km/h (1 Bft)
31.12.2019 14:05 5,6 C 5,0 C 5,4 C 6,1 C 6,1 C 0,5 C 77 % 78 % 1032,5 hPa 0,0 l/m 3,7 km/h (1 Bft) W-SW 247 0 min 1,9 C 6,1 C 5,0 km/h (1 Bft)
31.12.2019 14:10 5,6 C 5,0 C 5,4 C 5,8 C 5,8 C 0,2 C 77 % 78 % 1032,5 hPa 0,0 l/m 4,2 km/h (1 Bft) W-SW 247 0 min 1,9 C 5,8 C 6,8 km/h (2 Bft)
31.12.2019 14:15 5,5 C 5,0 C 5,4 C 5,6 C 5,6 C 0,1 C 77 % 78 % 1032,5 hPa 0,0 l/m 4,7 km/h (1 Bft) W-SW 247 0 min 1,8 C 4,9 C 0,0 km/h (0 Bft)
31.12.2019 14:20 5,6 C 5,0 C 5,4 C 5,8 C 5,8 C 0,2 C 77 % 78 % 1032,5 hPa 0,0 l/m 4,3 km/h (1 Bft) S-SO 157 0 min 1,9 C 5,8 C 8,9 km/h (2 Bft)
31.12.2019 14:25 5,6 C 5,0 C 5,5 C 5,9 C 5,9 C 0,3 C 77 % 78 % 1032,5 hPa 0,0 l/m 4,0 km/h (1 Bft) W-SW 247 0 min 1,9 C 5,9 C 4,8 km/h (1 Bft)
31.12.2019 14:30 5,6 C 5,0 C 5,5 C 5,7 C 5,7 C 0,1 C 77 % 78 % 1032,5 hPa 0,0 l/m 5,0 km/h (1 Bft) N-NO 22 0 min 1,9 C 4,9 C 4,8 km/h (1 Bft)
31.12.2019 14:35 5,7 C 5,0 C 5,5 C 5,9 C 5,9 C 0,2 C 77 % 78 % 1032,5 hPa 0,0 l/m 4,2 km/h (1 Bft) SW 225 0 min 2,0 C 5,9 C 4,7 km/h (1 Bft)
31.12.2019 14:40 5,6 C 5,0 C 5,4 C 6,3 C 6,3 C 0,7 C 77 % 78 % 1032,5 hPa 0,0 l/m 3,4 km/h (1 Bft) SW 225 0 min 1,9 C 6,3 C 4,3 km/h (1 Bft)
31.12.2019 14:45 5,6 C 5,0 C 5,4 C 6,1 C 6,1 C 0,5 C 77 % 78 % 1032,5 hPa 0,0 l/m 3,9 km/h (1 Bft) W 270 0 min 1,9 C 6,1 C 3,7 km/h (1 Bft)
31.12.2019 14:50 5,7 C 5,0 C 5,4 C 6,1 C 6,1 C 0,4 C 77 % 78 % 1032,5 hPa 0,0 l/m 3,7 km/h (1 Bft) SW 225 0 min 2,0 C 6,1 C 6,1 km/h (2 Bft)
31.12.2019 14:55 5,6 C 5,0 C 5,4 C 6,1 C 6,1 C 0,5 C 77 % 78 % 1032,5 hPa 0,0 l/m 3,7 km/h (1 Bft) S-SW 202 0 min 1,9 C 6,1 C 5,0 km/h (1 Bft)
31.12.2019 15:00 5,7 C 5,0 C 5,3 C 5,7 C 5,7 C 0,0 C 77 % 78 % 1032,5 hPa 0,0 l/m 4,3 km/h (1 Bft) SW 225 0 min 2,0 C 5,7 C 3,5 km/h (1 Bft)
31.12.2019 15:05 5,7 C 5,0 C 5,4 C 5,7 C 5,7 C 0,0 C 77 % 78 % 1032,5 hPa 0,0 l/m 4,3 km/h (1 Bft) SW 225 0 min 2,0 C 5,7 C 5,0 km/h (1 Bft)
31.12.2019 15:10 5,6 C 5,0 C 5,4 C 5,7 C 5,7 C 0,1 C 77 % 78 % 1032,5 hPa 0,0 l/m 4,3 km/h (1 Bft) SW 225 0 min 1,9 C 5,7 C 4,8 km/h (1 Bft)
31.12.2019 15:15 5,7 C 5,1 C 5,3 C 5,9 C 5,9 C 0,2 C 77 % 78 % 1032,5 hPa 0,0 l/m 3,9 km/h (1 Bft) W-SW 247 0 min 2,0 C 5,9 C 3,7 km/h (1 Bft)
31.12.2019 15:20 5,7 C 5,1 C 5,3 C 5,7 C 5,6 C 0,0 C 77 % 78 % 1032,5 hPa 0,0 l/m 4,0 km/h (1 Bft) W-SW 247 0 min 2,0 C 5,6 C 3,4 km/h (1 Bft)
31.12.2019 15:25 5,6 C 5,1 C 5,1 C 5,5 C 5,4 C 0,0 C 77 % 78 % 1032,5 hPa 0,0 l/m 4,2 km/h (1 Bft) SW 225 0 min 1,9 C 5,4 C 5,8 km/h (2 Bft)
31.12.2019 15:30 5,5 C 5,1 C 5,1 C 5,6 C 5,6 C 0,1 C 77 % 79 % 1032,5 hPa 0,0 l/m 3,9 km/h (1 Bft) S-SW 202 0 min 1,8 C 5,6 C 3,5 km/h (1 Bft)
31.12.2019 15:35 5,5 C 5,1 C 5,1 C 5,8 C 5,8 C 0,3 C 77 % 79 % 1032,5 hPa 0,0 l/m 3,4 km/h (1 Bft) W-SW 247 0 min 1,8 C 5,8 C 5,0 km/h (1 Bft)
31.12.2019 15:40 5,4 C 5,1 C 5,1 C 5,6 C 5,6 C 0,2 C 77 % 79 % 1032,5 hPa 0,0 l/m 3,5 km/h (1 Bft) SW 225 0 min 1,7 C 5,6 C 6,4 km/h (2 Bft)
31.12.2019 15:45 5,5 C 5,1 C 5,1 C 5,7 C 5,7 C 0,2 C 78 % 79 % 1032,5 hPa 0,0 l/m 3,4 km/h (1 Bft) W-SW 247 0 min 2,0 C 5,7 C 5,1 km/h (1 Bft)
31.12.2019 15:50 5,4 C 5,1 C 5,0 C 5,8 C 5,8 C 0,4 C 78 % 79 % 1032,5 hPa 0,0 l/m 3,2 km/h (1 Bft) W-SW 247 5 min 1,9 C 5,8 C 2,6 km/h (1 Bft)
31.12.2019 15:55 5,4 C 5,1 C 5,0 C 5,4 C 5,4 C 0,0 C 78 % 79 % 1032,5 hPa 0,0 l/m 3,9 km/h (1 Bft) W-SW 247 0 min 1,9 C 5,4 C 6,1 km/h (2 Bft)
31.12.2019 16:00 5,5 C 5,1 C 5,0 C 5,5 C 5,4 C 0,0 C 78 % 79 % 1032,5 hPa 0,0 l/m 3,7 km/h (1 Bft) W-SW 247 0 min 2,0 C 5,4 C 6,8 km/h (2 Bft)
31.12.2019 16:05 5,5 C 5,1 C 4,9 C 5,6 C 5,6 C 0,1 C 78 % 79 % 1032,5 hPa 0,0 l/m 3,5 km/h (1 Bft) SW 225 0 min 2,0 C 5,6 C 5,0 km/h (1 Bft)
31.12.2019 16:10 5,5 C 5,1 C 4,9 C 5,6 C 5,6 C 0,1 C 78 % 79 % 1032,5 hPa 0,0 l/m 3,4 km/h (1 Bft) W 270 0 min 2,0 C 5,6 C 3,5 km/h (1 Bft)
31.12.2019 16:15 5,5 C 5,1 C 4,9 C 5,6 C 5,6 C 0,1 C 78 % 80 % 1032,5 hPa 0,0 l/m 3,2 km/h (1 Bft) S-SW 202 0 min 2,0 C 5,6 C 9,8 km/h (2 Bft)
31.12.2019 16:20 5,5 C 5,1 C 4,8 C 5,6 C 5,6 C 0,1 C 78 % 80 % 1032,5 hPa 0,0 l/m 3,1 km/h (1 Bft) S 180 0 min 2,0 C 5,6 C 2,6 km/h (1 Bft)
31.12.2019 16:25 5,5 C 5,1 C 4,9 C 5,4 C 5,3 C 0,0 C 78 % 80 % 1033,9 hPa 0,0 l/m 3,7 km/h (1 Bft) S 180 0 min 2,0 C 5,3 C 6,8 km/h (2 Bft)
31.12.2019 16:30 5,5 C 5,1 C 4,9 C 5,4 C 5,3 C 0,0 C 78 % 80 % 1033,9 hPa 0,0 l/m 3,9 km/h (1 Bft) S-SW 202 0 min 2,0 C 5,3 C 6,3 km/h (2 Bft)
31.12.2019 16:35 5,4 C 5,1 C 4,8 C 5,3 C 5,2 C 0,0 C 78 % 80 % 1033,9 hPa 0,0 l/m 4,0 km/h (1 Bft) NW 315 0 min 1,9 C 5,2 C 3,7 km/h (1 Bft)
31.12.2019 16:40 5,3 C 5,1 C 4,8 C 5,3 C 5,3 C 0,0 C 78 % 80 % 1033,9 hPa 0,0 l/m 3,9 km/h (1 Bft) SW 225 0 min 1,8 C 5,3 C 5,5 km/h (1 Bft)
31.12.2019 16:45 5,3 C 5,1 C 4,8 C 5,6 C 5,6 C 0,3 C 78 % 80 % 1034,2 hPa 0,0 l/m 3,2 km/h (1 Bft) SW 225 0 min 1,8 C 5,6 C 4,8 km/h (1 Bft)
31.12.2019 16:50 5,3 C 5,1 C 4,8 C 5,4 C 5,4 C 0,1 C 78 % 80 % 1034,2 hPa 0,0 l/m 3,4 km/h (1 Bft) SW 225 0 min 1,8 C 5,4 C 4,2 km/h (1 Bft)
31.12.2019 16:55 5,2 C 5,1 C 4,7 C 5,5 C 5,5 C 0,3 C 78 % 80 % 1034,2 hPa 0,0 l/m 3,1 km/h (1 Bft) W-SW 247 0 min 1,7 C 5,5 C 3,9 km/h (1 Bft)
31.12.2019 17:00 5,2 C 5,1 C 4,7 C 5,4 C 5,4 C 0,2 C 78 % 80 % 1034,2 hPa 0,0 l/m 2,4 km/h (1 Bft) S-SW 202 0 min 1,7 C 5,4 C 2,9 km/h (1 Bft)
31.12.2019 17:05 5,2 C 5,1 C 4,7 C 5,4 C 5,4 C 0,2 C 78 % 80 % 1034,6 hPa 0,0 l/m 3,1 km/h (1 Bft) S-SW 202 0 min 1,7 C 5,4 C 5,1 km/h (1 Bft)
31.12.2019 17:10 5,2 C 5,1 C 4,7 C 5,1 C 4,9 C 0,0 C 78 % 80 % 1034,6 hPa 0,0 l/m 3,9 km/h (1 Bft) W-SW 247 0 min 1,7 C 4,9 C 5,0 km/h (1 Bft)
31.12.2019 17:15 5,3 C 5,1 C 4,6 C 5,1 C 4,7 C 0,0 C 78 % 80 % 1034,6 hPa 0,0 l/m 4,3 km/h (1 Bft) SW 225 0 min 1,8 C 4,7 C 5,3 km/h (1 Bft)
31.12.2019 17:20 5,2 C 5,1 C 4,5 C 5,2 C 5,2 C 0,0 C 78 % 80 % 1034,6 hPa 0,0 l/m 3,2 km/h (1 Bft) SW 225 0 min 1,7 C 5,2 C 3,5 km/h (1 Bft)
31.12.2019 17:25 5,1 C 5,2 C 4,5 C 5,1 C 5,1 C 0,0 C 78 % 80 % 1034,9 hPa 0,0 l/m 2,7 km/h (1 Bft) SW 225 0 min 1,6 C 5,1 C 4,0 km/h (1 Bft)
31.12.2019 17:30 5,0 C 5,2 C 4,4 C 4,9 C 4,8 C 0,0 C 79 % 80 % 1034,9 hPa 0,0 l/m 3,7 km/h (1 Bft) W-SW 247 0 min 1,7 C 4,8 C 4,2 km/h (1 Bft)
31.12.2019 17:35 5,1 C 5,2 C 4,4 C 4,9 C 4,6 C 0,0 C 79 % 81 % 1034,9 hPa 0,0 l/m 4,2 km/h (1 Bft) S 180 0 min 1,8 C 4,6 C 3,4 km/h (1 Bft)
31.12.2019 17:40 5,1 C 5,2 C 4,4 C 4,9 C 4,6 C 0,0 C 79 % 81 % 1034,9 hPa 0,0 l/m 4,0 km/h (1 Bft) W-SW 247 0 min 1,8 C 4,6 C 5,3 km/h (1 Bft)
31.12.2019 17:45 5,1 C 5,2 C 4,4 C 4,9 C 4,6 C 0,0 C 79 % 81 % 1034,9 hPa 0,0 l/m 4,2 km/h (1 Bft) SW 225 0 min 1,8 C 4,6 C 4,2 km/h (1 Bft)
31.12.2019 17:50 5,1 C 5,2 C 4,4 C 4,9 C 4,6 C 0,0 C 79 % 81 % 1034,9 hPa 0,0 l/m 4,2 km/h (1 Bft) SW 225 0 min 1,8 C 4,6 C 2,6 km/h (1 Bft)
31.12.2019 17:55 4,9 C 5,2 C 4,4 C 4,8 C 4,6 C 0,0 C 79 % 81 % 1034,9 hPa 0,0 l/m 4,0 km/h (1 Bft) W-SW 247 0 min 1,6 C 4,6 C 2,4 km/h (1 Bft)
31.12.2019 18:00 4,9 C 5,2 C 4,4 C 4,7 C 4,4 C 0,0 C 79 % 81 % 1034,9 hPa 0,0 l/m 4,3 km/h (1 Bft) W-SW 247 0 min 1,6 C 4,4 C 7,4 km/h (2 Bft)
31.12.2019 18:05 4,9 C 5,2 C 4,3 C 4,8 C 4,6 C 0,0 C 79 % 81 % 1035,2 hPa 0,0 l/m 4,0 km/h (1 Bft) SW 225 0 min 1,6 C 4,6 C 6,0 km/h (2 Bft)
31.12.2019 18:10 4,9 C 5,2 C 4,3 C 4,9 C 4,8 C 0,0 C 79 % 81 % 1035,2 hPa 0,0 l/m 3,7 km/h (1 Bft) SW 225 0 min 1,6 C 4,8 C 2,6 km/h (1 Bft)
31.12.2019 18:15 4,9 C 5,2 C 4,3 C 4,8 C 4,6 C 0,0 C 80 % 81 % 1035,2 hPa 0,0 l/m 4,2 km/h (1 Bft) W-SW 247 0 min 1,7 C 4,6 C 6,1 km/h (2 Bft)
31.12.2019 18:20 4,9 C 5,2 C 4,3 C 4,7 C 4,3 C 0,0 C 80 % 81 % 1035,2 hPa 0,0 l/m 4,7 km/h (1 Bft) S 180 0 min 1,7 C 3,4 C 3,5 km/h (1 Bft)
31.12.2019 18:25 4,8 C 5,2 C 4,3 C 4,6 C 4,3 C 0,0 C 80 % 81 % 1035,2 hPa 0,0 l/m 4,7 km/h (1 Bft) SW 225 0 min 1,6 C 3,4 C 8,2 km/h (2 Bft)
31.12.2019 18:30 4,8 C 5,2 C 4,3 C 4,6 C 4,3 C 0,0 C 80 % 81 % 1035,2 hPa 0,0 l/m 4,7 km/h (1 Bft) S 180 0 min 1,6 C 3,4 C 4,0 km/h (1 Bft)
31.12.2019 18:35 4,8 C 5,2 C 4,3 C 4,7 C 4,4 C 0,0 C 80 % 81 % 1035,2 hPa 0,0 l/m 4,5 km/h (1 Bft) SW 225 0 min 1,6 C 4,4 C 3,4 km/h (1 Bft)
31.12.2019 18:40 4,8 C 5,2 C 4,3 C 4,7 C 4,6 C 0,0 C 80 % 81 % 1035,2 hPa 0,0 l/m 3,9 km/h (1 Bft) S 180 0 min 1,6 C 4,6 C 5,1 km/h (1 Bft)
31.12.2019 18:45 4,8 C 5,2 C 4,2 C 4,6 C 4,3 C 0,0 C 80 % 81 % 1035,2 hPa 0,0 l/m 4,0 km/h (1 Bft) S-SW 202 0 min 1,6 C 4,3 C 5,5 km/h (1 Bft)
31.12.2019 18:50 4,7 C 5,2 C 4,2 C 4,5 C 4,2 C 0,0 C 80 % 81 % 1035,2 hPa 0,0 l/m 4,3 km/h (1 Bft) SW 225 0 min 1,6 C 4,2 C 4,2 km/h (1 Bft)
31.12.2019 18:55 4,7 C 5,3 C 4,2 C 4,5 C 4,0 C 0,0 C 80 % 81 % 1035,2 hPa 0,0 l/m 4,5 km/h (1 Bft) S 180 0 min 1,6 C 4,0 C 6,1 km/h (2 Bft)
31.12.2019 19:00 4,7 C 5,3 C 4,1 C 4,4 C 3,9 C 0,0 C 80 % 81 % 1035,2 hPa 0,0 l/m 4,7 km/h (1 Bft) S 180 0 min 1,6 C 3,0 C 5,1 km/h (1 Bft)
31.12.2019 19:05 4,7 C 5,3 C 4,1 C 4,4 C 3,9 C 0,0 C 80 % 81 % 1035,2 hPa 0,0 l/m 4,7 km/h (1 Bft) S 180 0 min 1,6 C 3,0 C 2,6 km/h (1 Bft)
31.12.2019 19:10 4,7 C 5,3 C 4,1 C 4,5 C 4,2 C 0,0 C 80 % 81 % 1035,2 hPa 0,0 l/m 4,2 km/h (1 Bft) S 180 0 min 1,6 C 4,2 C 2,4 km/h (1 Bft)
31.12.2019 19:15 4,7 C 5,3 C 4,1 C 4,6 C 4,4 C 0,0 C 80 % 81 % 1035,2 hPa 0,0 l/m 3,7 km/h (1 Bft) SW 225 0 min 1,6 C 4,4 C 6,0 km/h (2 Bft)
31.12.2019 19:20 4,6 C 5,3 C 4,1 C 4,7 C 4,7 C 0,1 C 80 % 81 % 1035,2 hPa 0,0 l/m 3,1 km/h (1 Bft) SW 225 0 min 1,5 C 4,7 C 4,0 km/h (1 Bft)
31.12.2019 19:25 4,6 C 5,3 C 4,1 C 4,7 C 4,7 C 0,1 C 80 % 81 % 1035,2 hPa 0,0 l/m 2,3 km/h (1 Bft) SW 225 0 min 1,5 C 4,7 C 2,7 km/h (1 Bft)
31.12.2019 19:30 4,5 C 5,3 C 4,1 C 4,7 C 4,7 C 0,2 C 80 % 82 % 1035,2 hPa 0,0 l/m 2,4 km/h (1 Bft) SW 225 0 min 1,4 C 4,7 C 4,3 km/h (1 Bft)
31.12.2019 19:35 4,5 C 5,3 C 4,1 C 4,6 C 4,6 C 0,1 C 80 % 81 % 1035,2 hPa 0,0 l/m 1,8 km/h (1 Bft) W-SW 247 0 min 1,4 C 4,6 C 1,8 km/h (1 Bft)
31.12.2019 19:40 4,4 C 5,3 C 4,0 C 4,6 C 4,6 C 0,2 C 80 % 82 % 1035,2 hPa 0,0 l/m 1,3 km/h (1 Bft) W-SW 247 0 min 1,3 C 4,6 C 0,0 km/h (0 Bft)
31.12.2019 19:45 4,4 C 5,3 C 4,1 C 4,6 C 4,6 C 0,2 C 80 % 82 % 1035,2 hPa 0,0 l/m 1,1 km/h (1 Bft) W-SW 247 0 min 1,3 C 4,6 C 2,1 km/h (1 Bft)
31.12.2019 19:50 4,4 C 5,3 C 4,1 C 4,6 C 4,6 C 0,2 C 81 % 81 % 1035,2 hPa 0,0 l/m 1,0 km/h (0 Bft) W-SW 247 0 min 1,4 C 4,6 C 0,0 km/h (0 Bft)
31.12.2019 19:55 4,4 C 5,3 C 4,1 C 4,6 C 4,6 C 0,2 C 81 % 82 % 1035,2 hPa 0,0 l/m 1,3 km/h (1 Bft) SW 225 0 min 1,4 C 4,6 C 3,2 km/h (1 Bft)
31.12.2019 20:00 4,4 C 5,3 C 4,1 C 4,6 C 4,6 C 0,2 C 81 % 82 % 1035,2 hPa 0,0 l/m 2,3 km/h (1 Bft) SW 225 0 min 1,4 C 4,6 C 3,1 km/h (1 Bft)
31.12.2019 20:05 4,4 C 5,3 C 4,0 C 4,4 C 4,4 C 0,0 C 81 % 82 % 1035,2 hPa 0,0 l/m 3,4 km/h (1 Bft) S-SW 202 0 min 1,4 C 4,4 C 6,3 km/h (2 Bft)
31.12.2019 20:10 4,4 C 5,3 C 4,0 C 4,3 C 4,2 C 0,0 C 81 % 82 % 1035,2 hPa 0,0 l/m 3,9 km/h (1 Bft) SW 225 0 min 1,4 C 4,2 C 4,3 km/h (1 Bft)
31.12.2019 20:15 4,5 C 5,3 C 4,0 C 4,4 C 4,1 C 0,0 C 81 % 82 % 1035,2 hPa 0,0 l/m 4,0 km/h (1 Bft) S-SW 202 0 min 1,5 C 4,1 C 3,2 km/h (1 Bft)
31.12.2019 20:20 4,5 C 5,3 C 3,9 C 4,4 C 4,2 C 0,0 C 81 % 82 % 1035,2 hPa 0,0 l/m 3,5 km/h (1 Bft) SW 225 0 min 1,5 C 4,2 C 5,0 km/h (1 Bft)
31.12.2019 20:25 4,4 C 5,3 C 3,9 C 4,4 C 4,3 C 0,0 C 81 % 82 % 1035,2 hPa 0,0 l/m 3,4 km/h (1 Bft) SW 225 0 min 1,4 C 4,3 C 3,7 km/h (1 Bft)
31.12.2019 20:30 4,4 C 5,3 C 3,9 C 4,3 C 4,2 C 0,0 C 81 % 82 % 1035,2 hPa 0,0 l/m 3,5 km/h (1 Bft) S 180 0 min 1,4 C 4,2 C 4,7 km/h (1 Bft)
31.12.2019 20:35 4,4 C 5,3 C 3,9 C 4,5 C 4,5 C 0,1 C 81 % 82 % 1035,2 hPa 0,0 l/m 2,9 km/h (1 Bft) SW 225 0 min 1,4 C 4,5 C 3,9 km/h (1 Bft)
31.12.2019 20:40 4,3 C 5,3 C 3,9 C 4,4 C 4,4 C 0,1 C 81 % 82 % 1035,2 hPa 0,0 l/m 2,7 km/h (1 Bft) SW 225 0 min 1,3 C 4,4 C 2,7 km/h (1 Bft)
31.12.2019 20:45 4,3 C 5,3 C 3,9 C 4,4 C 4,4 C 0,1 C 81 % 82 % 1035,2 hPa 0,0 l/m 2,6 km/h (1 Bft) S 180 0 min 1,3 C 4,4 C 3,4 km/h (1 Bft)
31.12.2019 20:50 4,3 C 5,3 C 3,8 C 4,4 C 4,4 C 0,1 C 81 % 82 % 1035,2 hPa 0,0 l/m 2,3 km/h (1 Bft) W-SW 247 0 min 1,3 C 4,4 C 0,0 km/h (0 Bft)
31.12.2019 20:55 4,3 C 5,3 C 3,8 C 4,2 C 4,1 C 0,0 C 81 % 82 % 1035,2 hPa 0,0 l/m 3,2 km/h (1 Bft) S-SW 202 0 min 1,3 C 4,1 C 4,8 km/h (1 Bft)
31.12.2019 21:00 4,3 C 5,3 C 3,8 C 4,1 C 3,8 C 0,0 C 81 % 82 % 1035,2 hPa 0,0 l/m 3,9 km/h (1 Bft) NW 315 0 min 1,3 C 3,8 C 4,8 km/h (1 Bft)
31.12.2019 21:05 4,2 C 5,3 C 3,8 C 3,9 C 3,4 C 0,0 C 81 % 82 % 1035,9 hPa 0,0 l/m 4,5 km/h (1 Bft) SW 225 0 min 1,2 C 3,4 C 6,1 km/h (2 Bft)
31.12.2019 21:10 4,2 C 5,3 C 3,8 C 3,9 C 3,4 C 0,0 C 81 % 82 % 1035,9 hPa 0,0 l/m 4,7 km/h (1 Bft) SW 225 0 min 1,2 C 2,4 C 5,0 km/h (1 Bft)
31.12.2019 21:15 4,2 C 5,3 C 3,8 C 4,1 C 3,8 C 0,0 C 81 % 82 % 1035,9 hPa 0,0 l/m 3,9 km/h (1 Bft) S 180 0 min 1,2 C 3,8 C 3,5 km/h (1 Bft)
31.12.2019 21:20 4,3 C 5,3 C 3,8 C 4,2 C 4,1 C 0,0 C 81 % 82 % 1035,9 hPa 0,0 l/m 3,2 km/h (1 Bft) W-SW 247 0 min 1,3 C 4,1 C 4,5 km/h (1 Bft)
31.12.2019 21:25 4,2 C 5,3 C 3,7 C 4,3 C 4,3 C 0,1 C 80 % 82 % 1036,0 hPa 0,0 l/m 2,9 km/h (1 Bft) W-SW 247 0 min 1,1 C 4,3 C 0,0 km/h (0 Bft)
31.12.2019 21:30 4,3 C 5,3 C 3,7 C 4,3 C 4,2 C 0,0 C 81 % 82 % 1036,0 hPa 0,0 l/m 3,1 km/h (1 Bft) W-SW 247 0 min 1,3 C 4,2 C 5,3 km/h (1 Bft)
31.12.2019 21:35 4,3 C 5,3 C 3,7 C 4,3 C 4,3 C 0,0 C 81 % 82 % 1036,0 hPa 0,0 l/m 2,9 km/h (1 Bft) S 180 0 min 1,3 C 4,3 C 3,2 km/h (1 Bft)
31.12.2019 21:40 4,3 C 5,3 C 3,7 C 4,3 C 4,3 C 0,0 C 81 % 82 % 1036,0 hPa 0,0 l/m 2,7 km/h (1 Bft) W-SW 247 0 min 1,3 C 4,3 C 3,2 km/h (1 Bft)
31.12.2019 21:45 4,2 C 5,3 C 3,7 C 4,1 C 4,0 C 0,0 C 81 % 82 % 1036,0 hPa 0,0 l/m 3,4 km/h (1 Bft) SW 225 0 min 1,2 C 4,0 C 9,2 km/h (2 Bft)
31.12.2019 21:50 4,2 C 5,3 C 3,7 C 4,0 C 3,6 C 0,0 C 81 % 82 % 1036,0 hPa 0,0 l/m 4,2 km/h (1 Bft) W-SW 247 0 min 1,2 C 3,6 C 4,8 km/h (1 Bft)
31.12.2019 21:55 4,1 C 5,3 C 3,7 C 4,0 C 3,9 C 0,0 C 81 % 82 % 1036,0 hPa 0,0 l/m 3,5 km/h (1 Bft) W-SW 247 0 min 1,1 C 3,9 C 3,1 km/h (1 Bft)
31.12.2019 22:00 4,1 C 5,3 C 3,7 C 4,2 C 4,2 C 0,1 C 81 % 82 % 1036,0 hPa 0,0 l/m 2,7 km/h (1 Bft) SW 225 0 min 1,1 C 4,2 C 3,2 km/h (1 Bft)
31.12.2019 22:05 4,1 C 5,3 C 3,7 C 4,2 C 4,2 C 0,1 C 81 % 82 % 1036,0 hPa 0,0 l/m 3,1 km/h (1 Bft) SW 225 0 min 1,1 C 4,2 C 2,3 km/h (1 Bft)
31.12.2019 22:10 4,1 C 5,3 C 3,6 C 4,1 C 4,1 C 0,0 C 81 % 82 % 1036,0 hPa 0,0 l/m 3,2 km/h (1 Bft) S 180 0 min 1,1 C 4,1 C 2,9 km/h (1 Bft)
31.12.2019 22:15 4,1 C 5,3 C 3,7 C 4,1 C 4,1 C 0,0 C 81 % 82 % 1036,0 hPa 0,0 l/m 3,1 km/h (1 Bft) S 180 0 min 1,1 C 4,1 C 6,6 km/h (2 Bft)
31.12.2019 22:20 4,1 C 5,3 C 3,6 C 4,0 C 3,9 C 0,0 C 81 % 82 % 1036,0 hPa 0,0 l/m 3,4 km/h (1 Bft) W-SW 247 0 min 1,1 C 3,9 C 4,5 km/h (1 Bft)
31.12.2019 22:25 4,1 C 5,3 C 3,6 C 4,2 C 4,2 C 0,1 C 81 % 82 % 1036,0 hPa 0,0 l/m 2,9 km/h (1 Bft) S 180 0 min 1,1 C 4,2 C 4,2 km/h (1 Bft)
31.12.2019 22:30 4,1 C 5,3 C 3,6 C 4,2 C 4,2 C 0,1 C 81 % 82 % 1036,0 hPa 0,0 l/m 2,4 km/h (1 Bft) S-SO 157 0 min 1,1 C 4,2 C 4,0 km/h (1 Bft)
31.12.2019 22:35 4,0 C 5,3 C 3,6 C 3,9 C 3,8 C 0,0 C 81 % 82 % 1036,0 hPa 0,0 l/m 3,5 km/h (1 Bft) S 180 0 min 1,0 C 3,8 C 4,8 km/h (1 Bft)
31.12.2019 22:40 4,0 C 5,3 C 3,5 C 3,8 C 3,5 C 0,0 C 81 % 82 % 1036,0 hPa 0,0 l/m 4,0 km/h (1 Bft) S 180 0 min 1,0 C 3,5 C 6,6 km/h (2 Bft)
31.12.2019 22:45 4,0 C 5,3 C 3,6 C 3,8 C 3,5 C 0,0 C 81 % 82 % 1036,0 hPa 0,0 l/m 4,0 km/h (1 Bft) SW 225 0 min 1,0 C 3,5 C 1,6 km/h (1 Bft)
31.12.2019 22:50 4,0 C 5,3 C 3,5 C 3,9 C 3,6 C 0,0 C 81 % 82 % 1036,0 hPa 0,0 l/m 3,9 km/h (1 Bft) W-SW 247 0 min 1,0 C 3,6 C 4,3 km/h (1 Bft)
31.12.2019 22:55 4,0 C 5,3 C 3,5 C 3,9 C 3,6 C 0,0 C 81 % 82 % 1036,0 hPa 0,0 l/m 3,7 km/h (1 Bft) SW 225 0 min 1,0 C 3,6 C 4,7 km/h (1 Bft)
31.12.2019 23:00 4,0 C 5,3 C 3,5 C 3,8 C 3,3 C 0,0 C 81 % 82 % 1036,0 hPa 0,0 l/m 4,2 km/h (1 Bft) SW 225 0 min 1,0 C 3,3 C 6,4 km/h (2 Bft)
31.12.2019 23:05 3,9 C 5,3 C 3,5 C 3,6 C 3,0 C 0,0 C 81 % 82 % 1036,5 hPa 0,0 l/m 4,8 km/h (1 Bft) S-SW 202 0 min 0,9 C 1,9 C 6,8 km/h (2 Bft)
31.12.2019 23:10 3,9 C 5,3 C 3,5 C 3,6 C 2,9 C 0,0 C 81 % 82 % 1036,5 hPa 0,0 l/m 5,1 km/h (1 Bft) SW 225 0 min 0,9 C 1,7 C 6,9 km/h (2 Bft)
31.12.2019 23:15 3,9 C 5,3 C 3,5 C 3,8 C 3,6 C 0,0 C 81 % 82 % 1036,5 hPa 0,0 l/m 3,7 km/h (1 Bft) O-SO 112 0 min 0,9 C 3,6 C 0,0 km/h (0 Bft)
31.12.2019 23:20 3,9 C 5,3 C 3,5 C 3,9 C 3,9 C 0,0 C 81 % 82 % 1036,5 hPa 0,0 l/m 2,3 km/h (1 Bft) SO 135 0 min 0,9 C 3,9 C 0,0 km/h (0 Bft)
31.12.2019 23:25 3,9 C 5,3 C 3,4 C 3,9 C 3,8 C 0,0 C 81 % 82 % 1036,5 hPa 0,0 l/m 0,6 km/h (0 Bft) S 180 0 min 0,9 C 3,8 C 4,5 km/h (1 Bft)
31.12.2019 23:30 3,9 C 5,3 C 3,4 C 3,9 C 3,8 C 0,0 C 81 % 82 % 1036,5 hPa 0,0 l/m 0,5 km/h (0 Bft) S 180 0 min 0,9 C 3,8 C 0,0 km/h (0 Bft)
31.12.2019 23:35 3,9 C 5,3 C 3,4 C 3,9 C 3,8 C 0,0 C 81 % 82 % 1036,5 hPa 0,0 l/m 1,6 km/h (1 Bft) S 180 0 min 0,9 C 3,8 C 0,0 km/h (0 Bft)
31.12.2019 23:40 3,9 C 5,3 C 3,4 C 3,9 C 3,8 C 0,0 C 81 % 82 % 1036,5 hPa 0,0 l/m 1,9 km/h (1 Bft) S 180 0 min 0,9 C 3,8 C 0,0 km/h (0 Bft)
31.12.2019 23:45 3,9 C 5,3 C 3,4 C 3,9 C 3,8 C 0,0 C 81 % 82 % 1036,3 hPa 0,0 l/m 2,1 km/h (1 Bft) W-SW 247 0 min 0,9 C 3,8 C 2,3 km/h (1 Bft)
31.12.2019 23:50 3,9 C 5,3 C 3,4 C 3,9 C 3,8 C 0,0 C 81 % 82 % 1036,3 hPa 0,0 l/m 2,3 km/h (1 Bft) W-SW 247 0 min 0,9 C 3,8 C 2,4 km/h (1 Bft)
31.12.2019 23:55 3,9 C 5,3 C 3,4 C 3,9 C 3,9 C 0,0 C 81 % 82 % 1036,3 hPa 0,0 l/m 2,7 km/h (1 Bft) S 180 0 min 0,9 C 3,9 C 2,7 km/h (1 Bft)
_ Min-Zeit 06:00 00:00 05:55 05:55 04:50 00:00 00:00 00:00 03:25 - 23:30 - - - 03:50 04:55 12:10
Minimum _ 3,4 C 4,6 C 2,4 C 3,2 C 1,9 C 0,0 C 45 % 49 % 1026,6 hPa - 0,5 km/h (0 Bft) - - - -5,8 C -0,5 C 0,0 km/h (0 Bft)
_ Max-Zeit 01:10 18:55 13:15 13:30 13:30 12:15 19:50 19:30 23:05 00:00 04:55 - - 15:50 14:35 13:30 04:55
Maximum _ 6,5 C 5,3 C 5,5 C 6,5 C 6,5 C 1,0 C 81 % 82 % 1036,5 hPa 0,0 l/m 8,4 km/h
N (2 Bft)
- - 5 min 2,0 C 6,5 C 19,3 km/h
N (3 Bft)
Durchschnitt _ 4,8 C 5,0 C 4,2 C 4,7 C 4,3 C 0,1 C 68 % 70 % 1031,5 hPa #0,0 l/m 4,2 km/h (1 Bft) SW - #5 min. -1,0 C 3,8 C 5,4 km/h (1 Bft)
2020 www.wetterstation-wechselburg.de